ATLAS 5 CENTAUR DEB, 43996

Orbit data source: Space-Track

ATLAS 5 CENTAUR DEB, 43996 is space debris in HEO originally from a launch on Wed, 17 Sep 2014 UTC launched from the Air Force Eastern Test Range (AFETR). Debris objects in space refer to the collection of defunct objects orbiting the Earth. Examples of debris include non-operational satellites, rocket bodies, and fragments generated from explosions, collisions, or faulty payload assembly.

Loading next visibility...
Identifier
43996, 2014-055BB
Orbit
HEO
Country
Flag of USUS
Related business
Flag of USUnited Launch Alliance/Lockheed Martin (US)
Manufacturer
Unknown
Mission
Spacecraft
Bus & Motor
Unknown
Mass
Unknown
Launch date (UTC)
2014-09-17 (11 years ago)
Launch vehicle
Unknown
Launch site
Air Force Eastern Test Range (AFETR)
Object type
Payload
Rocket body
Debris
Shape & HBR
Unknown shape, 1.1 m
Radar Cross Section
Small (<0.1 m²)

Expand to show TLE details & history
Last TLE update: 18 hours ago

TLE from 18 hours ago
0 ATLAS 5 CENTAUR DEB
1 43996U 14055BB  25287.00758601 -.00000009  00000-0  00000-0 0  9997
2 43996  19.3990 181.0675 4901043 100.2655 316.3447  1.81741505 46552
Epoch: 2025-10-14T00:10Z
TLE epoch observation values (Epoch: 2025-10-14T00:10:55.431Z)
Latitude
-0°
Longitude
155.57424°
Altitude
17,239.468 km
Speed
4.439 km/s
True Right ascension
12h 04m 25s
True Declination
0° 00' 00"
Sunlit
Object was in daylight at epoch
Visualization orbit readout
Latitude
Unknown
Longitude
Unknown
Altitude
Unknown
Speed
Unknown
Apparent Right ascension
Unknown
Apparent Declination
Unknown
Sunlit
N/A
Visualization observer readout
Local Sidereal Time
12:40:20
Azimuth
Unknown
Elevation
Unknown
Doppler factor
Unknown
Orbital elements
Apogee altitude
35,889.956 km
Perigee altitude
8,085.494 km
Semi-major axis
28,365.862 km
Eccentricity
0.4901
Inclination
19.399°
RAAN
181.0675°
Arg. of periapsis
100.2655°
True anomaly
259.69848°
Mean anomaly
316.3447°
Eccentric anomaly
289.94869°
Mean motion
0.45431 °/min
Orbital period
792.42 mins
BSTAR
0
Loading maneuver chart data...
Computing Atmospheric mass density...

Documentation

Showing up to 5 results
|